WESTFORD NEEDLES, 2530

Orbit data source: Space-Track

WESTFORD NEEDLES, 2530 is space debris in LEO originally from a launch on Thu, 09 May 1963 UTC launched from the Air Force Western Test Range (AFWTR). Debris objects in space refer to the collection of defunct objects orbiting the Earth. Examples of debris include non-operational satellites, rocket bodies, and fragments generated from explosions, collisions, or faulty payload assembly.

Loading next visibility...
Identifier
2530, 1963-014AJ
Orbit
LEO
Country
Flag of USUS
Related business
Manufacturer
Unknown
Mission
Spacecraft
Bus & Motor
Unknown
Mass
Unknown
Launch date (UTC)
1963-05-09 (62 years ago)
Launch vehicle
Unknown
Launch site
Air Force Western Test Range (AFWTR)
Object type
Payload
Rocket body
Debris
Shape & HBR
Unknown shape, 1.1 m
Radar Cross Section
Medium (>0.1 m² and <1 m²)

Expand to show TLE details & history
Last TLE update: 4 days ago

TLE from 4 days ago
0 WESTFORD NEEDLES
1 02530U 63014AJ  25288.16002147  .00000943  00000-0  38680+0 0  9990
2 02530  87.6372 175.7827 0443962  47.3960 105.0486  8.68171147918330
Epoch: 2025-10-15T03:50Z
TLE epoch observation values (Epoch: 2025-10-15T03:50:25.855Z)
Latitude
22.70719°
Longitude
-86.74861°
Altitude
3,757.325 km
Speed
6.231 km/s
True Right ascension
23h 39m 11s
True Declination
22° 37' 16"
Sunlit
Object was in full shadow at epoch
Visualization orbit readout
Latitude
Unknown
Longitude
Unknown
Altitude
Unknown
Speed
Unknown
Apparent Right ascension
Unknown
Apparent Declination
Unknown
Sunlit
N/A
Visualization observer readout
Local Sidereal Time
11:54:45
Azimuth
Unknown
Elevation
Unknown
Doppler factor
Unknown
Orbital elements
Apogee altitude
4,063.495 km
Perigee altitude
3,175.769 km
Semi-major axis
9,997.769 km
Eccentricity
0.0444
Inclination
87.6372°
RAAN
175.7827°
Arg. of periapsis
47.396°
True anomaly
109.886°
Mean anomaly
105.0486°
Eccentric anomaly
107.47492°
Mean motion
2.17114 °/min
Orbital period
165.81 mins
BSTAR
0.3868

Documentation

Showing up to 5 results
|